[Date Prev][Date Next][Thread Prev][Thread Next] - [Date Index][Thread Index][Author Index]
2 Line ISS Keps 8-20
- Subject: [sarex] 2 Line ISS Keps 8-20
- From: "Dave Larsen PhD" <doc@xxxxxxxxxxx>
- Date: Tue, 20 Aug 2002 03:51:30 -0700
ISS
1 25544U 98067A 02232.15013267 .00048046 00000-0 62609-3 0 623
2 25544 51.6384 91.9691 0017021 159.7664 345.5291 15.58067420214007
----
Via the sarex mailing list at AMSAT.ORG courtesy of AMSAT-NA.
To unsubscribe, send "unsubscribe sarex" to Majordomo@amsat.org
AMSAT Home